Погода в Нови Йичине

Чехия     49°35′35″N   18°00′33″E
темп.,
°C
ветер,
м/с
пор.,
м/с
влажн.,
%
обл.,
%
осадки,
мм/ч
давл.,
гПа
погр.,
м
17 апреля, сб
сб1723:00+1ююв0199100 0.2 1021168
02:00+2юз1299100 0.2 1020306
05:00+2зюз01100100 0.2 1020338
08:00+2всв11100100 0.5 1020293
11:00+3всв1198100 0.1 1020211
14:00+5ссв228794 0.3 1020608
17:00+5св339083 0.1 1020535
20:00+2св249994 0.1 1020306
18 апреля, вс
вс1823:00+2св2399100 0.0 1020246
02:00+2св2499100 0.0 1020417
05:00+2ссв2499100 0.0 1019311
08:00+3св2599100 0.0 1019329
11:00+4св3593100 0.0 1019598
14:00+5св3687100 0.1 1018777
17:00+5св3690100 0.1 1018561
20:00+4св2496100 0.1 1018140
19 апреля, пн
пн1923:00+2св1298100 0.0 101840
02:00+2св2399100 0.0 101869
05:00+2св2499100 0.1 1017156
08:00+4ссв2597100 0.2 1016293
11:00+7св3686100 0.0 1015654
14:00+9св4680100 0.5 10131177
17:00+8св3789100 0.9 1013608
20:00+6ссв2695100 1.4 1013220
20 апреля, вт
вт2023:00+6ссв239794 0.4 1013117
02:00+5с1299100 0.6 1013131
05:00+5с2399100 0.5 1013198
08:00+5ссв249479 1.2 1014346
11:00+9св347517 0.1 1013941
14:00+11ссв346294 0.5 10121262
17:00+11ссв34569 0.2 10111414
20:00+6ссв11825 0.3 101210
21 апреля, ср
ср2123:00+4юв11895 0.0 101310
02:00+3ююв118812 0.0 101310
05:00+3ю228786 0.0 101317
08:00+7ююз127958 0.2 1013197
11:00+11юз44708 0.8 10121048
14:00+13зюз566043 2.1 10111474
17:00+12юз466611 1.3 10101222
20:00+7ю228611 2.1 101129